Content
SEND FEEDBACK

Daily
Averages
Monthly
Summary
Mexico

CANCUN, QUINTANA ROO


Home > North America > Mexico > Quintana Roo
Elevation: 30 feet     Latitude: 21 09N     Longitude: 086 49W

WEATHER
 
SELECT A DAY
Number of Records: 163,654;   Date Range: 1/1/95 - 7/20/14
 
SHARE

PRINT THIS DATA

[ ← Previous Day ]
WEATHER ALMANAC - MARCH 17, 2013
[ Next Day → ]
[ °C ]   °F
Weather ElementAverageHighLow
Temperature78 °F82.4 °F (10:40 am)73.4 °F (1:44 am)
Dewpoint68.9 °F73.4 °F (5:46 pm)64.4 °F (1:44 am)
Humidity73.6 %89 % (5:46 pm)61 % (7:40 am)
Barometer29.96 in30.01 in (7:40 am)29.91 in (4:42 pm)
Wind Speed12.8 mph18.4 mph (10:40 am)
Weather ElementAverage
Visibility6.4 mi
Wind DirectionSE (134.8 °)

Weather ElementTotal
Precipitation---
Cooling Degree Days12.9 (Base 65)
Growing Degree Days27.9 (Base 50)
Averaged from 23 records on March 17, 2013
WEATHER CONDITIONS BREAKOUT
WIND DIRECTION BREAKOUT
WEATHER BY HOUR - MARCH 17, 2013
[ °C ]   °F
Local TimeTemperatureDewpointHumidityBarometerVisibilityWind DirectionWind SpeedGust SpeedPrecipitationEventsConditions
1:44 AM73.4 °F64.4 °F73 %29.98 in7.0 miESE (120°)9.2 mphClear
2:46 AM73.4 °F64.4 °F73 %29.95 in7.0 miSE (130°)6.9 mphPartly Cloudy
3:45 AM73.4 °F64.4 °F73 %29.97 in7.0 miESE (120°)9.2 mphScattered Clouds
4:44 AM73.4 °F64.4 °F73 %29.96 in7.0 miESE (120°)9.2 mphScattered Clouds
5:43 AM73.4 °F64.4 °F73 %29.97 in7.0 miESE (120°)9.2 mphScattered Clouds
6:42 AM75.2 °F66.2 °F73 %29.99 in7.0 miSE (130°)8.1 mphScattered Clouds
7:40 AM78.8 °F64.4 °F61 %30.01 in7.0 miSE (140°)11.5 mphPartly Cloudy
8:49 AM80.6 °F68.0 °F65 %30.01 in7.0 miSE (140°)12.7 mphScattered Clouds
9:45 AM80.6 °F68.0 °F65 %30.00 in7.0 miSE (140°)15.0 mphScattered Clouds
10:40 AM82.4 °F68.0 °F62 %30.00 in7.0 miSSE (160°)18.4 mphScattered Clouds
11:52 AM80.6 °F69.8 °F70 %29.97 in6.0 miSE (130°)18.4 mphMostly Cloudy
12:40 PM80.6 °F69.8 °F70 %29.96 in6.0 miSSE (150°)13.8 mphMostly Cloudy
1:42 PM80.6 °F71.6 °F74 %29.93 in6.0 miSE (140°)17.3 mphOvercast
2:47 PM80.6 °F71.6 °F74 %29.93 in6.0 miSE (130°)16.1 mphMostly Cloudy
3:40 PM78.8 °F71.6 °F78 %29.92 in6.0 miSE (140°)11.5 mphMostly Cloudy
4:42 PM78.8 °F71.6 °F78 %29.91 in6.0 miSE (140°)12.7 mphOvercast
5:46 PM77.0 °F73.4 °F89 %29.92 in6.0 miSE (130°)9.2 mphOvercast
6:51 PM78.8 °F71.6 °F78 %29.93 in6.0 miSE (140°)15.0 mphOvercast
7:42 PM78.8 °F71.6 °F78 %29.93 in6.0 miSE (140°)10.4 mphOvercast
8:41 PM78.8 °F71.6 °F78 %29.94 in6.0 miSE (140°)18.4 mphMostly Cloudy
9:49 PM78.8 °F71.6 °F78 %29.95 in6.0 miSE (130°)13.8 mphOvercast
10:45 PM78.8 °F71.6 °F78 %29.94 in6.0 miSE (130°)13.8 mphOvercast
11:50 PM78.8 °F71.6 °F78 %29.93 in6.0 miSE (140°)15.0 mphOvercast
Hourly data recorded from MMUN, located miles away from Cancun, Quintana Roo







STORIES FROM OUR PARTNERS